Location: Alderholt
(50.9167°N, 1.8333°W)
Time: 21:22:12
(UTC+00:00)

Daily predictions for brighter satellites

Satellite Brightness Start Highest point End
(mag) Time Altitude Azimuth Time Altitude Azimuth Time Altitude Azimuth
Cosmos 1844 Rocket 2.9 17:33:46 10° S 17:39:13 50° ESE 17:44:39 10° NE
Unknown 3.9 17:35:38 10° SW 17:39:43 59° SSE 17:43:49 10° ENE
FengYun 1-2 T 4.4 17:36:46 10° SE 17:42:13 52° ENE 17:47:39 10° N
Unknown 3.8 17:38:56 10° SW 17:43:01 62° SSE 17:47:08 10° ENE
Unknown 3.8 17:39:20 10° SW 17:43:25 61° SSE 17:47:31 10° ENE
Unknown 2.8 17:41:25 10° WNW 17:44:03 62° SSW 17:46:41 10° ESE
Unknown 3.8 17:40:30 10° SW 17:44:35 61° SSE 17:48:42 10° ENE
Cosmos 724 4.4 17:38:40 10° SSW 17:44:48 77° SE 17:50:50 10° NE
Cosmos 1606 Rocket 3.8 17:40:42 10° SSE 17:44:55 48° E 17:49:08 10° NNE
Meteor 2-12 Rocket 4.5 17:39:30 10° N 17:45:42 77° ENE 17:51:52 10° SSE
Unknown 3.8 17:43:39 10° SW 17:47:44 62° SSE 17:51:51 10° ENE
Envisat 3.0 17:44:24 10° SSE 17:49:27 68° ENE 17:54:31 10° N
Cosmos 1758 Rocket 3.7 17:46:32 10° NNW 17:51:00 83° W 17:55:28 10° S
Unknown 3.7 17:47:06 10° SW 17:51:12 66° SSE 17:55:20 10° ENE
Unknown 3.7 17:48:45 10° WSW 17:52:52 67° SSE 17:56:59 10° ENE
Cosmos 1461 3.8 17:50:43 10° NNW 17:54:18 30° NE 17:57:59 10° E
Unknown 3.7 17:50:25 10° WSW 17:54:32 69° SSE 17:58:39 10° ENE
Unknown 3.7 17:52:03 10° WSW 17:56:11 70° SSE 18:00:15 10° ENE
Lacrosse 5 rocket 2.7 17:53:18 10° WNW 17:56:45 36° SW 18:00:21 10° SSE
FALCON 9 DEB 3.4 17:53:28 10° WNW 17:56:56 60° N 18:00:08 12° E
ASTEX 1 3.6 17:52:49 10° NNE 17:57:37 48° E 18:02:24 10° SSE
Unknown 3.7 17:55:23 10° WSW 17:59:31 72° SSE 18:03:27 11° ENE
Cosmos 1356 4.4 17:57:20 10° SSE 18:00:15 26° E 18:03:12 10° NE
Cosmos 2278 Rocket 3.4 17:56:49 10° SSE 18:00:56 21° E 18:05:05 10° NE
Unknown 3.6 17:57:05 10° WSW 18:01:13 74° SSE 18:05:06 12° ENE
Cosmos 1939 Rocket 3.8 17:58:35 10° ESE 18:01:58 27° ENE 18:05:24 10° N
Unknown 3.3 17:58:45 10° WNW 18:02:09 61° N 18:05:05 13° E
Unknown 3.6 17:58:43 10° WSW 18:02:51 75° SSE 18:06:39 12° ENE
Unknown 3.4 18:00:17 10° WNW 18:03:47 60° N 18:06:45 14° E
Unknown 3.6 18:00:20 10° WSW 18:04:28 75° SSE 18:08:12 13° ENE
Cosmos 1470 3.5 18:00:36 10° SSW 18:04:32 58° WNW 18:08:28 10° N
Unknown 3.6 18:00:44 10° WSW 18:04:52 76° SSE 18:08:36 13° ENE
Cosmos 1844 3.8 17:59:36 10° SSW 18:05:13 62° ESE 18:10:57 10° NE
ATLAS 5 CENTAUR R/B 1.7 18:01:05 10° SW 18:05:26 84° NW 18:10:24 10° NE
SKYMED 2 3.7 18:03:21 10° NNE 18:07:38 53° E 18:11:52 10° S
Unknown 3.6 18:03:29 10° WSW 18:07:38 75° SSE 18:11:14 13° ENE
Cosmos 1328 3.9 18:04:20 10° N 18:08:17 54° ENE 18:12:10 10° SSE
Unknown 3.6 18:06:51 10° WSW 18:10:59 78° SSE 18:14:29 14° ENE
Unknown 3.6 18:08:29 10° WSW 18:12:38 79° SSE 18:16:03 15° ENE
YAOGAN 1 2.5 18:09:46 10° SSE 18:14:03 65° ENE 18:18:22 10° N
Unknown 3.6 18:10:22 10° WSW 18:14:32 84° SSE 18:17:53 15° ENE
ATLAS CENTAUR R/B 3.9 18:12:07 10° NW 18:14:55 15° N 18:17:38 10° NNE
Unknown 3.6 18:11:46 10° WSW 18:15:54 81° SSE 18:19:12 16° ENE
Falcon 9 debris 3.3 18:13:09 10° WNW 18:16:36 65° N 18:18:58 18° E
Unknown 3.6 18:13:26 10° WSW 18:17:35 83° SSE 18:20:49 16° ENE
Cosmos 292 Rocket 4.1 18:16:02 10° S 18:20:30 43° ESE 18:25:00 10° NE
Unknown 3.6 18:16:48 10° WSW 18:20:57 85° SSE 18:24:03 17° ENE
Unknown 3.6 18:18:28 10° WSW 18:22:38 86° SSE 18:25:39 18° ENE
Unknown 3.6 18:20:08 10° WSW 18:24:17 87° SSE 18:27:15 19° ENE
CSL-04 Rocket 3.7 18:18:49 10° SSE 18:24:22 84° ENE 18:29:54 10° NNW
CZ-4 R/B 1.6 18:20:37 10° S 18:24:47 79° WSW 18:29:03 10° NNW
Unknown 3.6 18:21:48 10° WSW 18:25:57 88° SSE 18:28:51 19° ENE
Cosmos 2263 Rocket 4.1 18:21:13 10° W 18:26:01 27° NW 18:30:49 10° NNE
Cosmos 1726 Rocket 3.6 18:21:56 10° SSW 18:26:21 83° W 18:30:44 10° N
Unknown 3.3 18:23:16 10° WNW 18:26:46 66° N 18:28:48 23° E
Shenzhou-11 Module 4.0 18:26:52 10° SW 18:28:38 16° S 18:29:46 13° SSE
Unknown 3.6 18:25:07 10° WSW 18:29:16 89° NNW 18:32:02 21° ENE
Lacrosse 5 2.0 18:24:19 10° WNW 18:29:22 62° NNE 18:32:48 20° E
Unknown 3.6 18:26:36 10° WSW 18:30:45 87° NNW 18:33:27 21° ENE
Unknown 3.6 18:27:04 10° WSW 18:31:13 84° NNW 18:33:55 21° ENE
Cosmos 1726 1.9 18:28:01 10° S 18:31:39 69° E 18:35:18 10° NNE
Cosmos 2228 3.4 18:27:29 10° SSW 18:31:51 70° WNW 18:36:13 10° N
Ariane Rocket 3.1 18:27:09 10° SE 18:32:05 52° ENE 18:37:03 10° N
Cosmos 1242 Rocket 2.9 18:28:25 10° NNW 18:32:07 69° W 18:35:46 10° S
NOAA 11 4.2 18:26:53 10° SSE 18:32:14 61° ENE 18:37:36 10° N
Unknown 3.6 18:28:41 10° WSW 18:32:50 84° NNW 18:35:29 22° ENE
Cosmos 1271 Rocket 4.4 18:29:48 10° NNW 18:33:30 38° W 18:37:12 10° SSW
Unknown 3.6 18:31:45 10° WSW 18:35:54 85° NNW 18:38:25 23° ENE
Cosmos 1833 Rocket 2.7 18:33:31 10° NNW 18:39:08 65° ENE 18:44:18 12° SE
Unknown 3.6 18:35:04 10° WSW 18:39:13 83° NNW 18:41:36 25° ENE
CZ-2D R/B 3.2 18:35:59 10° SSE 18:39:48 68° ENE 18:43:41 10° N
ARGOS 4.2 18:38:25 21° E 18:40:10 25° ENE 18:44:30 10° N
Unknown 3.6 18:36:47 10° WSW 18:40:57 83° NNW 18:43:15 26° ENE
Cosmos 2058 Rocket 3.0 18:37:18 10° S 18:41:40 87° W 18:46:04 10° N
Cosmos 921 Rocket 3.2 18:37:33 10° SSW 18:42:04 80° WNW 18:46:33 10° NNE
Unknown 3.6 18:38:24 10° WSW 18:42:34 82° NNW 18:44:48 26° ENE
Unknown 3.6 18:38:43 10° WSW 18:42:49 78° NNW 18:45:00 27° ENE
Unknown 3.6 18:40:06 10° WSW 18:44:16 81° NNW 18:46:26 27° ENE
Cosmos 2084 3.8 18:41:06 10° SW 18:45:37 68° NW 18:49:25 14° NE
Cosmos 1339 Rocket 4.4 18:41:41 10° S 18:47:40 67° E 18:53:47 10° NNE
Unknown 3.7 18:44:14 10° W 18:48:16 71° N 18:50:11 30° ENE
Cosmos 1777 Rocket 4.1 18:44:35 10° NNW 18:49:50 80° WSW 18:55:02 10° SSE
SPOT 3 Rocket 4.2 18:48:35 26° E 18:50:28 34° ENE 18:55:07 10° N
Unknown 3.6 18:46:43 10° W 18:50:51 78° NNW 18:52:46 31° ENE
NOSS 3-2 (A) 4.3 18:46:22 10° SSE 18:50:58 25° ESE 18:51:20 25° ESE
Unknown 3.5 18:47:28 10° WNW 18:51:10 62° N 18:52:29 36° ENE
Unknown 3.6 18:48:25 10° W 18:52:35 77° NNW 18:54:24 32° ENE
HJ-1C 3.4 18:51:33 32° SE 18:52:51 56° ENE 18:56:11 10° N
Unknown 3.7 18:50:05 10° W 18:54:13 76° NNW 18:55:59 33° ENE
NOSS 3-3 (A) 4.5 18:47:00 10° NW 18:54:16 69° NE 18:59:43 23° ESE
NOSS 3-3 (C) 4.5 18:47:06 10° NW 18:54:21 68° NE 18:59:47 23° ESE
Cosmos 1459 Rocket 4.3 18:49:03 10° N 18:54:56 43° ENE 18:58:57 20° SE
USA 116 3.3 18:52:16 10° N 18:55:23 75° WNW 18:58:39 10° SSW
Cosmos 1703 4.1 18:51:52 10° NNW 18:55:44 53° W 18:59:32 10° S
COSMO-SKYMED 1 3.3 18:51:28 10° N 18:55:44 55° WNW 18:59:59 10° SSW
Unknown 3.7 18:51:43 10° W 18:55:51 75° NNW 18:57:33 34° ENE
Unknown 3.7 18:53:24 10° W 18:57:33 75° NNW 18:59:10 36° ENE
Cosmos 2058 3.4 18:53:53 10° N 18:57:51 37° ENE 18:58:10 37° E
Cosmos 1605 Rocket 4.1 18:51:38 10° NNW 18:57:53 80° W 19:04:00 10° S
FREGAT/IRIS 4.4 18:59:31 19° NNE 18:59:31 19° NNE 19:00:33 10° N
Gbstr 26 Del rocket 4.1 18:53:39 10° WNW 18:59:42 75° SSW 19:04:04 26° ESE
Unknown 3.7 18:56:46 10° W 19:00:55 73° N 19:02:24 38° ENE
Cosmos 2082 Rocket 2.2 18:55:32 10° NNW 19:01:15 68° ENE 19:04:38 25° SE
Starlink (trailer) 3.7 18:58:25 10° W 19:02:34 73° NNW 19:03:59 39° ENE
SJ 16-02 2.8 18:59:24 10° N 19:02:24 22° NE 19:02:24 22° NE
Abrixas rocket 4.2 19:01:43 10° SSW 19:02:52 16° S 19:02:52 16° S
Unknown 3.7 19:00:04 10° W 19:04:13 72° NNW 19:05:34 41° ENE
Unknown 3.6 19:00:32 10° W 19:04:20 61° N 19:05:15 45° ENE
Meteor 2-10 4.2 19:00:37 10° SSW 19:05:40 68° WNW 19:10:43 10° N
COSMOS 2406 4.3 19:00:12 10° NW 19:05:42 46° WSW 19:11:08 10° S
Unknown 3.7 19:01:41 10° W 19:05:50 72° N 19:07:07 42° ENE
Resurs 01 Rocket 3.4 19:09:04 18° NE 19:09:04 18° NE 19:11:02 10° NNE
H-2A R/B 2.6 19:06:53 35° E 19:08:06 40° ENE 19:13:08 10° N
SJ-6B 3.6 19:08:57 33° NE 19:08:57 33° NE 19:11:41 10° N
Cosmos 1727 Rocket 3.9 19:03:03 10° S 19:09:09 68° E 19:15:17 10° NNE
Unknown 4.0 19:07:15 10° W 19:10:09 35° SSW 19:10:36 33° SSW
Unknown 3.6 19:07:07 10° W 19:11:00 62° N 19:11:44 50° NE
Unknown 3.7 19:08:10 10° W 19:12:18 69° N 19:13:18 48° NE
Unknown 3.7 19:08:24 10° W 19:12:33 70° N 19:13:33 48° NE
Unknown 3.7 19:09:05 10° W 19:13:13 69° N 19:14:12 49° NE
Okean 3 Rocket 4.3 19:09:26 10° N 19:13:08 36° NE 19:13:08 36° NE
Cosmos 1802 Rocket 4.2 19:08:43 10° N 19:15:00 51° ENE 19:17:48 31° SE
Unknown 3.7 19:13:00 10° W 19:17:08 68° N 19:17:57 53° NE
Unknown 3.7 19:13:25 10° W 19:17:34 68° N 19:18:21 53° NE
Cosmos 2173 Rocket 3.9 19:12:07 10° N 19:18:23 62° ENE 19:22:02 25° SSE
Unknown 3.7 19:15:12 10° W 19:19:20 67° N 19:20:03 54° NE
Unknown 3.7 19:18:31 10° W 19:22:39 67° N 19:23:14 58° NE
Unknown 3.7 19:18:54 10° W 19:23:02 67° N 19:23:36 58° NE
Cosmos 1844 Rocket 4.1 19:18:06 10° WSW 19:23:18 36° NW 19:28:31 10° NNE
Unknown 3.7 19:20:05 10° W 19:24:14 67° N 19:24:45 59° NE
SJ-11-01 4.1 19:22:27 38° SSE 19:24:16 79° ENE 19:29:00 10° NNW
Unknown 3.7 19:23:14 10° W 19:27:22 67° N 19:27:46 62° NNE
In-Cosmos 22 Rocket 4.0 19:23:43 10° N 19:29:05 66° ENE 19:30:27 48° SE
Unknown 3.7 19:26:44 10° W 19:30:52 66° N 19:31:06 64° NNE
MOS 1 4.3 19:27:18 15° SSE 19:32:10 80° WSW 19:37:51 10° NNW
Cosmos 1898 Rocket 3.5 19:26:58 10° NNW 19:32:10 56° ENE 19:32:33 55° ENE
Unknown 3.7 19:28:24 10° W 19:32:32 65° N 19:32:41 65° N
Cosmos 1461 3.5 19:29:38 10° NW 19:33:35 50° SW 19:34:29 41° SSW
FALCON 9 DEB 3.8 19:30:38 10° WNW 19:33:29 53° W 19:33:29 53° W
Unknown 3.7 19:30:04 10° W 19:34:12 65° N 19:34:18 65° N
ADEOS Rocket 3.6 19:27:28 10° NNE 19:35:01 51° E 19:42:06 10° S
Unknown 3.8 19:31:44 10° W 19:35:52 65° N 19:35:54 65° N
Cosmos 1939 Rocket 4.5 19:33:08 10° SSW 19:36:47 34° W 19:40:31 10° NNW
Cosmos 1725 Rocket 4.1 19:30:44 10° N 19:36:49 49° ENE 19:37:15 48° E
CZ-2C R/B 3.6 19:37:01 47° ENE 19:37:07 47° ENE 19:42:38 10° N
Unknown 4.3 19:35:41 10° WNW 19:38:12 42° W 19:38:12 42° W
Unknown 3.8 19:35:05 10° W 19:39:06 64° NNW 19:39:06 64° NNW
Cosmos 2100 Rocket 3.9 19:33:03 10° N 19:39:19 89° E 19:43:19 23° S
Cosmos 2084 Rocket 3.4 19:35:04 10° NW 19:39:27 86° N 19:39:27 86° N
Unknown 3.9 19:36:48 10° W 19:40:45 63° NNW 19:40:45 63° NNW
Unknown 4.2 19:37:37 10° WNW 19:40:14 46° W 19:40:14 46° W
Cosmos 1000 Rocket 4.4 19:35:08 10° S 19:41:14 65° E 19:47:25 10° NNE
Cosmos 1812 Rocket 3.8 19:37:10 10° SSW 19:41:35 71° WNW 19:46:03 10° N
Unknown 3.9 19:38:26 10° W 19:42:18 62° NNW 19:42:18 62° NNW
Unknown 4.0 19:40:03 10° W 19:43:51 61° NNW 19:43:51 61° NNW
Cosmos 2278 Rocket 2.3 19:38:43 10° SW 19:44:25 77° WNW 19:50:08 10° NNE
Unknown 4.0 19:40:28 10° W 19:44:15 61° NNW 19:44:15 61° NNW
Unknown 4.1 19:43:13 10° W 19:46:53 59° NW 19:46:53 59° NW
Cosmos 1076 Rocket 4.3 19:45:34 10° NNW 19:49:49 51° W 19:51:23 33° SSW
Unknown 4.2 19:46:36 10° W 19:50:08 56° NW 19:50:08 56° NW
ATLAS 5 CENTAUR R/B 3.6 19:46:52 10° W 19:50:49 27° NNW 19:53:19 19° NNE
Unknown 4.2 19:48:14 10° W 19:51:42 54° NW 19:51:42 54° NW
Unknown 4.3 19:50:09 10° W 19:53:32 52° NW 19:53:32 52° NW
ATLAS CENTAUR R/B 3.5 19:52:05 10° NNW 19:55:00 20° N 19:55:00 20° N
Unknown 4.4 19:51:32 10° W 19:54:51 51° NW 19:54:51 51° NW
Unknown 4.4 19:53:13 10° W 19:56:28 49° NW 19:56:28 49° NW
Cosmos 2016 Rocket 3.9 19:55:51 10° N 20:02:08 86° ENE 20:03:18 62° SSE
SL-08 R/B 4.3 20:01:35 10° N 20:07:45 82° E 20:07:52 81° E
Lacrosse 5 2.6 20:07:27 10° WNW 20:12:00 44° SW 20:12:00 44° SW
USA 238 DEB 3.5 20:08:37 10° SW 20:15:21 87° SE 20:16:23 67° NE
USA 238 3.5 20:08:43 10° SW 20:15:28 86° SE 20:16:26 69° NE
Cosmos 2061 Rocket 4.1 20:11:48 10° NNW 20:18:03 72° W 20:19:19 56° SSW
ARGOS 3.4 20:19:56 66° WSW 20:20:00 66° WSW 20:25:26 10° NNW
SPOT 3 Rocket 4.5 20:29:15 42° WSW 20:29:45 43° W 20:34:44 10° NNW
Cosmos 1937 Rocket 4.3 20:25:04 10° NNW 20:28:49 48° NW 20:28:49 48° NW
NOSS 3-2 (A) 4.2 20:35:05 10° SW 20:38:49 42° SW 20:38:49 42° SW
SJ 16-02 3.4 20:37:30 10° NNW 20:39:25 25° NW 20:39:25 25° NW
Resurs 01 Rocket 3.8 20:46:39 22° NNW 20:46:39 22° NNW 20:48:19 10° NNW
Cosmos 2082 Rocket 4.0 20:40:21 10° NW 20:44:52 25° WSW 20:46:31 21° SW
H-2A R/B 3.3 20:47:31 37° W 20:47:33 37° W 20:52:34 10° NNW
Cosmos 2297 Rocket 4.5 20:45:44 10° N 20:47:53 14° NNE 20:47:53 14° NNE
ADEOS Rocket 4.4 21:13:05 10° N 21:20:24 46° WNW 21:27:20 10° SW
Cosmos 2278 Rocket 4.4 21:25:11 10° W 21:29:27 21° NW 21:33:04 12° N
ATLAS 5 CENTAUR R/B 4.5 21:33:13 10° NW 21:34:51 17° NNW 21:34:51 17° NNW
